Theta_e
305 305 305 306 305 305 305 304 304 303 303 299 297 296 286 286 286 297 302 302 302 296 286 286 283 284 289 293 292 293 291 289 291 290 292 290 291 290 288 288 288 290 286 285 286 287 284 285 282 285 287 288 290 291 289 292 290 290 286 286 288 292 280 277 278 280 282 286 287 288 288 287 285 285 286 286 283 284 281 280 280 280 280 279 277 275 279
304 305 305 306 305 305 305 304 304 303 303 300 298 289 287 288 287 290 300 304 303 292 283 282 284 287 291 291 289 292 290 289 289 288 290 288 287 287 284 286 290 287 290 286 285 288 281 287 286 283 287 284 293 289 291 292 290 288 284 282 288 279 280 279 273 271 275 278 282 282 284 286 283 282 285 286 287 286 286 285 285 279 280 281 278 273 277
304 305 306 306 305 305 305 304 304 303 303 303 296 290 290 288 288 290 294 302 300 290 288 285 285 286 285 283 282 284 287 291 292 291 290 292 289 287 283 284 288 288 290 287 288 289 286 283 289 287 283 285 292 290 292 292 290 291 294 296 291 281 278 278 270 266 263 265 267 271 276 279 282 286 286 288 286 285 283 278 280 277 280 283 277 278 286
304 304 305 306 305 305 304 304 303 303 303 303 296 294 291 286 279 285 286 291 294 296 297 293 286 282 281 281 282 285 284 289 292 292 289 291 291 288 285 282 288 284 283 282 285 285 288 285 283 283 282 285 290 291 289 291 291 294 298 298 291 282 284 280 277 274 272 276 278 281 285 282 280 283 285 286 288 287 285 284 280 278 280 279 283 284 285
304 304 305 306 305 305 304 303 302 303 303 303 296 295 289 286 280 279 280 285 290 290 288 284 283 279 283 280 285 282 285 286 288 291 284 290 289 288 286 285 282 282 283 284 284 285 283 287 286 284 283 287 288 291 291 291 293 297 297 299 290 286 282 282 280 279 279 281 283 286 287 283 284 283 283 286 287 287 285 281 280 284 280 278 285 286 284
304 304 305 306 305 304 304 303 302 303 303 303 296 286 287 280 283 284 286 281 278 279 277 283 283 283 284 282 286 284 283 284 282 287 289 290 290 285 286 287 284 284 283 284 283 287 287 284 278 285 286 288 291 289 291 290 295 297 295 299 291 285 279 284 283 281 283 284 285 287 287 286 285 285 285 285 287 286 284 283 285 284 280 279 285 285 285
303 304 305 305 305 304 304 303 302 303 302 301 289 285 287 287 286 286 288 279 280 281 284 285 284 283 282 281 284 280 282 282 284 284 285 287 286 287 279 282 284 284 286 285 285 284 283 283 286 283 285 287 287 286 287 290 293 295 292 292 292 287 281 286 287 284 286 286 287 288 286 286 286 286 286 287 287 287 287 286 286 286 284 286 286 286 286
303 304 305 305 304 304 303 302 303 303 302 297 293 291 287 286 284 282 287 286 284 282 282 283 282 279 285 280 281 283 281 280 284 286 284 281 284 289 284 284 285 286 286 284 284 286 287 286 284 288 287 288 286 286 285 284 290 293 291 291 292 288 281 288 286 283 283 285 287 287 287 286 284 286 288 288 288 288 289 288 287 287 285 286 286 285 285
304 304 305 305 304 303 302 302 303 303 302 292 291 290 293 291 292 292 287 282 282 283 282 281 281 277 279 280 282 283 283 282 285 284 288 285 283 286 284 286 285 287 285 284 285 287 288 289 289 290 290 287 288 286 288 292 289 289 288 290 291 288 282 289 284 280 280 284 285 286 286 286 284 285 286 286 286 285 284 283 285 284 282 284 284 283 284
304 305 305 304 303 303 302 302 302 302 302 294 292 289 295 294 294 293 289 282 286 281 280 281 279 275 281 283 283 282 283 285 286 281 286 289 289 288 287 287 286 284 284 285 289 291 291 290 291 292 294 295 294 294 294 293 291 288 286 289 286 286 286 283 281 279 278 283 286 284 285 283 280 281 283 286 286 288 288 289 288 288 288 284 279 283 288
304 305 305 303 303 303 302 302 302 303 299 294 292 291 294 292 291 292 290 282 280 281 281 279 279 282 283 285 283 285 284 285 285 280 281 287 288 290 289 287 285 283 284 289 294 293 293 293 293 296 295 294 293 293 293 294 294 293 290 286 287 288 287 283 285 279 278 283 285 284 279 270 274 282 288 290 288 288 286 287 288 289 289 286 287 288 291
304 305 304 304 303 303 302 302 301 302 301 297 297 294 296 297 295 294 287 281 281 282 281 280 281 282 282 284 284 283 283 283 284 286 283 285 287 289 289 288 286 281 290 295 294 294 295 300 296 294 294 292 292 293 293 292 293 295 295 291 286 286 286 283 286 281 279 282 284 277 271 274 284 288 291 292 291 290 289 289 290 292 291 291 291 294 295
304 305 304 304 303 303 303 302 302 301 302 298 296 292 296 298 294 292 290 285 281 283 281 283 286 285 285 284 283 284 285 286 287 287 287 286 286 288 289 288 286 289 294 292 293 292 291 288 287 288 290 291 292 293 292 292 293 295 295 296 291 283 283 283 283 281 281 281 278 273 275 285 290 292 293 294 293 290 289 287 289 291 292 293 293 296 298
304 305 304 304 303 304 303 303 302 301 301 301 295 295 295 297 293 291 290 284 283 286 286 285 286 284 283 283 283 284 285 285 286 287 284 287 286 287 289 291 292 294 294 293 291 291 285 284 279 280 282 284 281 282 286 291 293 294 294 296 296 292 286 285 283 284 279 278 278 281 286 287 288 288 291 291 289 288 287 283 284 290 293 295 297 299 300
304 305 304 304 304 304 304 303 302 302 301 303 297 293 292 294 296 293 294 290 283 285 286 281 282 282 284 284 284 283 282 283 284 284 288 289 287 289 290 292 294 294 294 291 290 286 282 281 281 282 281 283 279 280 286 286 290 292 292 292 292 292 287 284 283 281 282 280 278 279 278 277 283 291 295 296 294 293 290 287 286 291 294 297 299 299 300
304 304 305 304 305 305 304 303 302 302 301 302 298 294 293 295 294 295 293 289 286 280 283 287 287 287 285 284 285 283 281 282 284 285 284 284 286 289 291 293 294 294 293 293 287 283 282 283 283 284 282 283 287 285 282 287 288 293 293 291 290 290 289 287 284 281 281 281 279 277 276 279 287 289 294 296 296 295 294 287 285 288 294 300 301 299 300
304 304 304 304 305 305 303 302 302 301 301 301 297 294 291 296 295 294 292 291 289 283 290 290 290 289 286 283 283 281 282 281 284 281 280 282 285 287 289 293 294 293 292 289 286 282 282 281 283 285 285 288 284 283 288 286 286 287 291 293 290 284 282 281 282 280 279 278 279 278 281 282 288 293 296 300 300 297 292 281 277 287 299 301 300 300 300
304 304 304 304 304 304 303 302 301 301 301 303 299 295 293 296 297 297 294 291 286 285 288 289 287 283 282 282 283 285 286 285 286 287 284 285 285 284 287 290 288 292 293 286 284 280 279 279 280 280 282 291 290 291 281 287 284 283 283 285 282 278 278 280 280 277 280 281 280 279 282 288 294 296 298 300 302 296 283 279 283 295 301 302 301 300 301
304 304 304 304 304 303 303 302 301 301 301 302 300 297 295 294 295 296 293 290 288 283 289 293 292 289 290 292 289 288 288 287 287 283 283 282 282 287 289 290 290 283 289 283 282 281 279 278 281 283 282 283 287 283 288 285 282 286 286 284 282 281 281 278 279 280 281 278 279 282 284 290 297 298 300 302 296 284 282 290 297 300 301 302 302 301 302
304 304 304 304 304 303 304 303 302 301 301 301 300 294 295 296 296 296 293 288 290 287 290 291 292 289 292 289 285 285 285 286 286 283 280 279 286 289 286 281 285 287 284 285 280 282 279 278 280 282 280 280 283 290 287 288 290 286 286 288 282 282 282 280 280 281 281 279 279 280 279 288 297 299 298 300 287 287 295 299 302 303 302 301 302 302 303
304 304 304 304 304 304 304 303 302 301 301 301 300 295 293 294 294 295 297 295 289 284 286 294 293 292 292 291 292 291 289 286 286 282 285 285 288 285 277 277 282 284 281 285 281 280 281 279 281 282 287 287 287 288 282 284 287 293 292 286 287 290 285 283 284 286 283 281 279 281 287 292 299 298 289 295 298 302 303 302 301 304 302 301 301 302 304
303 303 303 304 304 304 304 302 301 300 301 301 300 297 292 296 296 296 297 297 290 286 288 292 293 292 293 294 294 294 293 292 293 292 288 285 288 287 285 286 286 285 286 288 281 280 282 282 283 282 284 285 286 285 287 283 282 289 294 292 284 293 290 289 286 291 287 285 286 292 296 298 300 300 300 301 304 305 305 305 304 303 304 304 302 303 304
303 303 303 304 304 304 303 302 301 300 301 301 300 296 293 295 296 299 297 292 294 294 295 293 293 294 295 295 297 297 297 297 296 294 293 288 285 288 287 286 286 289 289 290 284 283 283 284 280 284 284 285 282 282 284 286 283 283 285 293 291 293 296 296 293 291 295 296 296 298 298 299 300 303 304 303 304 306 307 305 303 305 306 305 304 304 305
303 303 303 304 304 304 303 302 301 300 301 301 300 296 295 297 297 297 296 294 290 285 289 291 287 281 285 288 293 297 297 296 297 297 298 295 286 283 286 289 291 289 287 288 289 287 283 284 285 286 282 286 288 282 280 280 281 284 285 285 289 295 298 295 289 293 289 286 292 294 296 299 300 301 304 306 307 306 307 306 305 305 306 307 307 305 305
303 303 303 304 304 304 303 302 301 300 301 301 301 300 299 297 298 298 292 285 285 285 281 285 286 291 293 295 296 294 296 298 299 298 296 295 293 288 286 289 292 289 287 289 290 286 282 283 283 283 281 287 289 282 285 282 285 288 282 286 288 287 298 293 292 291 288 290 296 298 299 300 301 301 301 303 305 306 307 307 307 307 307 307 307 308 307
303 303 303 304 304 303 302 302 301 301 301 301 302 297 295 294 296 296 294 293 291 289 283 283 287 294 295 294 293 295 297 297 296 296 296 296 296 295 293 294 293 293 292 291 291 286 284 283 281 281 282 284 290 283 282 287 288 291 288 288 292 292 296 286 291 289 292 295 296 297 299 298 301 304 305 305 305 305 306 308 308 308 307 307 308 308 308
303 303 304 304 304 303 302 302 301 301 302 302 301 300 298 297 297 295 293 291 288 283 285 282 287 292 294 292 295 297 297 296 296 295 295 296 295 296 295 293 291 291 290 288 286 286 285 284 281 283 285 285 286 288 289 288 286 286 286 292 297 295 288 292 290 286 287 287 292 295 291 291 298 301 303 304 306 306 306 307 307 307 307 307 306 307 308
303 303 303 303 303 303 302 302 302 302 302 303 301 300 299 297 297 296 296 294 290 284 283 284 285 290 295 291 295 294 295 295 294 293 293 293 294 294 293 292 291 290 288 286 284 284 284 282 284 282 282 284 286 286 287 289 289 289 289 292 296 293 293 293 288 286 287 294 296 297 296 297 299 301 304 305 306 305 305 305 306 307 308 307 306 305 305
303 303 304 303 303 303 302 302 302 302 302 301 299 297 296 297 298 297 297 297 295 291 288 288 291 289 282 288 294 293 294 294 293 293 292 292 293 292 292 292 290 290 289 285 282 281 281 284 281 285 286 286 288 284 286 284 285 285 289 294 295 296 296 295 295 295 296 298 297 298 298 299 301 303 304 305 306 305 305 307 308 308 308 307 306 305 304
303 303 303 303 303 303 302 302 302 302 301 299 296 293 289 293 300 299 298 298 297 295 287 285 282 285 292 291 290 292 293 294 293 292 292 291 291 292 292 291 290 292 290 285 284 283 283 284 281 285 289 293 289 281 284 283 285 289 294 296 297 297 297 298 297 295 295 299 299 301 303 303 304 303 304 305 306 306 305 306 306 307 307 307 307 306 307
303 303 303 303 303 303 302 302 302 302 301 297 294 286 285 283 293 301 301 300 300 295 287 286 284 288 286 289 290 290 291 292 292 291 292 292 292 292 293 293 291 292 286 285 285 284 282 281 281 285 289 293 290 286 285 285 284 287 294 296 296 296 297 298 299 298 299 300 301 303 303 303 302 303 303 304 305 305 305 305 306 308 308 308 307 307 307
303 303 303 303 303 302 302 302 302 301 299 295 291 289 288 290 295 298 299 299 296 291 286 284 284 282 281 285 289 291 292 292 292 292 291 293 292 292 292 293 290 293 289 285 283 285 284 284 284 288 289 292 293 285 288 286 285 288 294 295 297 297 298 299 299 300 301 302 302 301 299 301 301 300 301 305 304 305 304 304 305 306 307 307 307 307 308
303 303 303 303 303 302 302 302 302 301 297 299 302 302 302 301 302 301 301 296 293 287 289 286 283 284 281 284 289 290 292 290 289 288 290 291 291 292 288 291 291 290 299 289 284 283 284 282 282 285 288 291 286 284 287 285 289 294 296 296 296 297 298 300 300 300 300 301 301 296 296 298 300 303 302 303 303 303 303 303 303 305 306 307 307 307 307
303 303 303 303 303 302 302 301 301 300 300 297 292 294 297 301 300 301 299 296 291 290 289 285 282 281 281 288 282 288 292 287 286 287 285 291 291 291 287 288 288 287 289 287 284 286 284 285 285 282 288 287 285 284 282 289 294 295 294 294 295 295 297 299 299 299 300 300 300 299 299 300 300 301 301 301 302 303 304 302 304 305 304 305 305 306 306
303 303 303 302 302 302 301 300 298 296 293 294 294 296 297 301 301 302 300 293 286 285 286 286 286 282 281 280 275 283 291 289 285 286 285 289 290 290 289 285 282 285 285 292 285 282 282 286 288 285 285 286 286 285 286 290 292 293 293 291 292 294 295 294 296 298 300 301 300 299 299 299 299 299 299 299 301 302 302 301 301 302 301 302 304 305 304
303 303 302 302 301 300 298 298 296 294 291 291 293 300 304 304 303 300 299 297 292 285 284 285 284 281 280 276 275 281 291 287 287 287 288 285 288 289 287 285 283 284 289 287 282 282 284 289 286 282 283 285 285 288 289 292 291 292 293 291 291 291 293 293 294 296 299 299 298 298 298 298 298 297 298 299 300 302 302 301 301 301 301 302 302 302 302
302 301 301 300 298 296 291 291 297 295 294 296 299 303 304 302 300 299 297 295 296 297 288 284 283 282 282 279 279 283 288 282 285 284 282 284 283 283 283 282 281 284 283 280 277 282 286 291 286 285 285 285 287 290 291 292 292 292 292 292 292 291 292 293 293 295 296 298 298 298 298 298 298 298 298 298 299 300 302 301 301 299 299 299 300 301 301
301 300 297 294 293 288 287 289 296 300 302 303 303 294 291 291 284 285 289 288 290 294 288 289 283 285 286 282 279 287 286 282 283 283 281 279 284 282 280 283 283 284 280 278 281 290 284 283 282 284 287 293 292 291 291 292 292 294 293 293 292 292 292 292 292 292 292 293 294 296 297 297 298 298 298 298 298 299 301 302 302 301 300 300 299 300 301
298 296 295 294 290 286 287 294 303 304 300 299 295 288 284 283 282 283 284 286 287 285 288 287 284 288 285 283 284 288 287 283 281 279 280 282 282 281 282 279 282 282 279 278 281 289 281 281 282 283 285 289 289 289 292 292 292 292 293 293 293 293 293 292 292 291 290 290 292 295 296 296 296 298 298 298 299 300 301 303 303 303 301 301 301 302 301
295 291 288 289 288 290 297 300 301 299 295 288 284 284 281 283 280 278 282 282 283 286 287 283 288 286 287 284 281 282 288 284 279 279 277 283 285 282 280 281 280 280 274 276 280 285 282 278 282 282 283 287 288 291 291 291 291 292 292 292 293 292 292 292 292 292 292 292 293 294 296 298 299 299 298 298 299 299 299 300 301 301 301 300 299 301 299
294 294 293 288 293 295 296 297 297 293 288 285 283 282 280 278 281 279 280 278 278 279 284 283 284 283 285 285 284 282 289 290 287 287 282 282 284 283 279 279 282 280 276 275 279 282 279 279 283 284 284 288 288 289 289 289 290 291 291 292 292 291 291 290 291 291 290 290 290 291 292 294 297 299 300 300 299 298 298 298 299 300 301 300 300 299 299
295 295 295 296 296 296 295 292 288 286 285 284 279 276 279 279 280 281 280 277 275 277 283 285 282 282 282 286 286 286 285 289 286 283 282 281 282 282 278 280 281 277 274 277 281 277 279 279 282 283 286 288 289 289 288 288 289 290 290 291 292 291 290 289 289 290 291 290 290 290 291 291 293 297 299 299 299 298 298 299 300 300 299 298 298 298 297
299 299 298 294 291 288 288 286 287 284 279 279 277 276 278 276 278 277 275 279 282 283 283 291 288 289 290 290 286 288 284 287 286 281 282 280 281 281 280 278 277 275 276 279 280 276 278 281 281 283 287 287 288 287 288 288 289 290 290 291 292 291 290 289 288 288 289 290 290 290 290 290 291 293 298 300 299 298 298 298 299 301 299 297 295 295 296
297 297 292 288 286 286 286 279 286 282 279 279 279 275 275 275 279 281 279 280 282 284 285 285 285 284 281 283 285 281 282 284 285 282 281 280 281 278 277 277 277 279 281 277 275 276 280 283 283 285 286 287 287 286 287 288 288 288 289 290 291 291 289 288 288 287 288 289 290 290 290 290 290 293 296 298 297 297 298 299 301 299 298 296 295 294 294
289 287 288 286 284 286 284 276 285 280 275 277 280 274 275 274 278 280 281 285 286 284 284 283 283 282 282 283 283 281 282 281 281 280 277 280 279 278 277 276 277 278 278 274 273 274 280 281 285 286 285 284 285 286 287 287 288 287 287 289 290 290 289 287 286 286 287 287 288 288 288 288 289 290 293 296 296 297 298 298 299 298 297 296 295 295 295
286 285 285 280 277 282 282 279 280 278 280 279 278 279 278 279 281 282 285 287 285 284 284 285 283 283 282 280 281 280 280 280 278 278 279 280 276 274 276 280 279 276 273 271 273 276 278 281 284 284 285 284 285 286 287 287 288 288 287 287 288 289 288 287 285 285 286 287 288 288 287 288 288 289 290 292 294 294 294 295 297 296 296 296 295 295 294
287 288 285 284 279 281 283 278 279 280 281 281 280 280 281 283 283 284 286 284 284 284 285 284 284 285 281 279 280 279 276 279 279 279 280 278 275 278 281 279 275 274 274 274 277 279 281 284 285 286 285 285 285 286 286 287 287 287 287 287 288 288 287 286 285 285 285 287 288 287 287 287 287 289 290 290 292 293 292 292 295 296 297 296 295 294 294
284 287 285 278 276 280 279 280 281 281 281 282 282 282 284 283 282 283 285 285 285 284 284 283 281 279 280 280 282 278 276 278 278 279 280 279 281 280 280 279 277 279 280 278 278 282 284 285 285 285 286 285 285 284 285 285 286 286 286 286 287 287 286 285 285 285 286 286 287 286 286 286 287 287 288 288 289 291 292 292 293 295 296 296 295 294 294
286 284 283 281 281 281 280 281 281 280 281 282 281 282 284 284 283 284 285 284 285 285 285 284 278 280 279 278 279 277 277 278 276 275 281 280 279 277 278 276 277 276 280 281 281 283 284 285 286 286 285 284 284 284 285 285 285 285 286 286 286 287 286 285 285 285 285 286 286 286 286 286 287 287 287 288 287 288 291 290 290 292 293 292 292 292 292
285 284 284 282 281 281 281 282 282 278 278 280 279 280 280 280 282 284 285 285 284 282 282 283 283 280 279 279 276 276 276 277 278 279 277 276 278 279 278 275 277 277 279 283 283 284 285 285 285 284 284 284 284 284 284 285 285 285 286 286 287 287 286 285 285 285 285 286 286 286 286 286 286 287 287 287 288 289 289 288 288 288 289 290 290 290 289
287 285 284 285 282 279 281 276 276 275 278 278 279 280 280 282 283 284 286 284 282 279 276 278 279 278 277 275 276 274 277 281 279 279 280 279 282 281 278 276 278 281 282 284 285 285 284 284 283 283 283 283 283 284 284 285 285 285 286 285 286 286 286 286 285 285 285 286 286 286 286 286 286 287 288 289 289 288 287 287 287 286 287 288 288 288 287
283 281 282 283 284 283 282 280 279 280 280 281 280 280 281 283 282 282 284 280 279 279 278 277 277 277 274 274 276 278 279 276 275 276 277 280 282 279 279 280 281 282 282 282 283 285 284 284 283 283 283 283 284 284 284 285 285 285 285 285 285 285 285 285 285 285 285 285 286 286 286 286 286 287 288 287 287 286 285 285 285 286 285 286 287 287 286
Wind_Speed
19 19 19 18 19 21 24 24 23 22 22 8 7 3 4 4 1 4 3 3 3 4 0 1 2 0 4 7 7 5 5 4 4 5 4 3 2 0 1 3 1 3 2 1 0 3 4 4 3 4 3 4 11 5 8 6 3 1 2 2 2 5 2 3 5 5 7 9 11 10 10 7 3 2 2 2 5 6 7 5 3 1 4 7 4 3 7
18 19 18 19 19 21 22 22 23 21 19 8 6 3 1 1 1 4 3 2 3 3 4 5 6 5 5 3 8 6 4 2 6 3 4 1 2 1 1 2 4 5 0 1 3 2 3 3 3 5 0 5 4 8 8 11 5 6 4 4 4 2 3 3 2 4 7 8 3 1 4 2 0 1 4 4 6 5 3 5 2 0 5 7 2 6 8
17 18 18 19 19 19 20 22 22 21 19 11 1 2 1 2 1 2 5 2 3 2 2 3 5 8 10 6 9 5 2 5 9 8 7 6 2 2 3 2 1 3 1 3 4 5 7 5 4 4 2 5 0 7 7 10 6 9 7 3 7 3 3 5 2 4 2 1 4 1 1 5 4 1 3 6 2 6 2 1 1 2 3 3 2 6 14
16 17 17 18 19 18 19 20 21 22 20 12 2 1 2 3 2 4 4 5 1 1 1 0 3 5 6 9 6 2 4 3 8 4 6 3 3 4 2 2 2 1 4 5 2 3 5 7 4 3 4 3 1 4 8 7 9 10 14 6 7 2 2 4 6 7 6 5 3 4 2 2 1 6 5 10 10 9 3 3 2 6 6 6 9 12 15
15 16 16 17 17 17 19 19 21 22 22 13 3 1 2 0 3 2 5 4 1 1 2 2 3 3 2 2 3 4 7 8 4 5 4 3 8 4 1 1 4 5 5 8 7 1 2 7 6 8 5 4 4 5 9 6 11 14 9 6 2 0 1 5 7 8 8 5 5 6 4 4 5 6 9 8 9 7 6 6 7 3 3 12 13 12 10
14 15 15 17 16 16 18 19 21 23 23 15 3 3 2 2 1 3 1 0 4 6 4 4 7 5 2 4 1 4 10 10 9 8 3 6 5 2 1 1 4 7 7 8 6 3 5 1 3 6 4 4 5 2 4 6 8 12 5 3 3 3 2 2 3 4 4 5 6 4 5 7 6 7 8 10 8 5 8 7 6 5 8 14 15 5 5
14 15 15 15 14 16 17 18 19 22 23 15 3 4 3 2 0 1 1 1 2 2 6 7 5 10 3 3 1 5 6 8 3 3 11 10 2 4 4 9 11 14 9 2 4 2 8 6 4 2 5 2 3 1 1 4 7 6 4 3 3 2 1 2 4 5 8 6 5 5 4 3 6 10 11 12 12 12 9 6 6 12 13 11 14 13 14
13 14 15 14 13 16 17 18 17 17 21 8 7 5 2 4 2 3 2 2 4 4 2 3 4 4 4 2 2 3 3 7 12 5 3 8 7 3 7 12 14 14 11 2 4 7 4 5 9 4 2 10 2 2 3 1 1 5 5 2 2 4 1 4 3 2 8 10 10 6 7 5 6 12 12 12 12 11 9 5 8 10 9 9 13 13 16
13 14 14 12 14 15 16 17 16 15 15 5 5 2 3 1 1 1 5 5 3 2 1 4 4 3 3 4 5 6 3 8 10 15 10 12 6 5 10 12 14 11 5 6 10 10 8 11 13 15 11 9 4 2 2 0 1 2 2 1 0 3 3 2 3 2 4 6 10 14 11 10 12 14 12 11 6 5 3 5 5 4 6 7 8 10 10
12 13 12 12 14 14 15 16 15 11 11 3 2 3 2 1 2 0 1 3 3 3 2 4 1 1 0 1 2 3 10 11 11 11 4 1 4 7 8 13 8 10 10 11 12 15 16 17 16 11 12 13 10 5 5 1 1 2 3 2 2 3 5 4 2 2 6 5 9 10 9 7 7 11 7 7 5 5 5 5 5 6 6 5 5 9 9
11 11 10 12 13 12 13 14 14 10 6 5 4 2 3 4 3 3 0 2 2 1 6 2 1 3 3 5 6 4 6 9 7 5 6 6 15 10 11 11 8 9 9 11 15 14 15 17 16 6 7 8 9 7 7 7 6 7 3 2 1 6 7 4 4 2 3 5 5 2 2 2 2 4 7 3 4 5 4 6 6 5 5 6 6 8 7
9 10 8 9 11 12 11 12 12 12 5 2 0 1 1 2 3 2 2 4 3 1 1 5 5 4 3 9 4 9 11 10 10 6 12 12 18 17 13 10 2 8 10 16 18 17 15 3 1 3 2 3 6 7 6 9 11 6 7 6 3 3 5 3 2 2 3 3 5 5 2 2 5 4 3 3 5 4 7 9 10 9 8 10 11 12 10
9 9 8 7 9 10 10 10 11 11 8 2 2 1 1 3 2 2 2 2 4 4 6 5 5 9 10 9 7 7 9 11 10 11 11 12 14 10 3 4 7 9 16 19 20 14 4 3 5 1 2 2 2 4 7 8 13 12 6 8 6 4 5 3 1 2 1 2 1 2 4 4 6 8 4 5 1 1 1 7 10 9 8 9 8 10 9
9 9 8 8 9 9 9 9 10 10 10 3 2 1 1 1 2 2 1 2 6 3 4 9 8 5 4 6 6 10 9 9 9 6 6 2 9 15 12 5 8 13 14 13 9 4 4 5 3 6 4 6 3 2 3 6 8 10 9 8 10 7 2 3 2 2 3 2 2 7 4 7 4 3 3 3 3 2 2 5 5 6 8 8 5 9 8
8 9 9 9 9 10 9 9 9 8 8 7 0 1 1 1 1 1 2 2 6 8 4 5 2 3 6 10 6 9 6 6 11 9 7 6 6 4 8 14 13 15 14 7 7 4 2 1 5 6 4 7 4 4 4 4 4 2 4 7 6 9 10 3 3 2 3 3 4 4 2 1 3 1 2 4 4 4 2 1 8 1 1 3 4 8 10
8 9 10 10 11 10 8 8 9 8 8 7 3 2 3 3 2 2 2 2 3 7 3 6 2 3 7 9 7 7 7 7 6 11 10 3 4 12 10 7 14 11 7 2 2 3 5 3 3 3 4 4 2 2 4 6 8 6 3 2 3 2 3 3 5 2 1 1 2 2 2 3 2 6 4 2 2 3 4 2 9 3 8 5 4 11 9
9 9 10 11 11 9 8 9 9 9 8 6 2 3 2 1 1 1 1 2 4 9 5 4 4 5 6 6 1 3 2 4 6 7 8 10 11 12 15 16 10 3 9 4 5 4 6 5 1 0 2 2 4 4 5 3 8 9 18 16 13 5 1 2 0 3 1 1 1 3 3 3 1 3 3 4 2 2 2 4 5 2 5 0 3 7 11
9 9 10 11 9 7 9 9 10 9 8 5 2 2 3 1 2 0 2 3 4 6 5 4 3 3 4 3 7 3 2 2 2 4 5 9 8 5 10 10 10 5 4 6 4 4 4 3 6 2 2 1 3 2 4 6 6 4 6 7 5 5 5 1 3 2 3 4 3 2 4 2 4 5 4 3 1 4 2 7 7 4 8 6 2 4 8
9 10 10 10 8 8 9 9 8 9 7 6 2 3 3 2 2 0 2 4 4 7 4 3 1 6 5 2 6 4 3 4 4 5 7 8 2 4 11 7 2 6 8 4 3 2 3 2 1 1 1 5 2 2 5 3 2 3 1 5 4 3 2 3 1 1 4 2 2 5 5 4 4 5 5 3 2 3 6 6 5 7 9 8 6 6 6
9 10 10 10 9 9 10 11 10 8 8 7 3 3 4 3 3 3 2 4 3 11 10 12 9 12 4 4 4 4 5 4 2 3 2 6 3 14 10 3 2 5 7 2 3 2 3 4 3 2 2 2 3 2 3 4 2 3 3 0 1 2 3 4 3 3 1 1 2 4 3 1 4 3 3 3 2 4 4 6 9 7 8 7 9 6 7
9 10 10 10 10 10 11 11 11 7 7 8 5 3 4 2 3 3 4 3 5 10 9 3 4 9 6 8 9 8 6 10 4 3 5 5 3 3 2 2 4 4 3 3 4 3 1 3 4 2 2 2 4 3 4 6 8 3 3 1 1 1 1 2 2 1 3 1 2 2 3 5 2 1 4 4 6 3 6 8 11 7 7 8 9 11 9
9 10 10 11 11 10 10 11 10 8 7 8 7 2 5 3 2 2 3 4 6 8 8 6 5 11 13 13 13 12 13 14 16 9 7 7 2 5 4 6 6 1 2 1 3 2 3 1 1 3 5 5 1 2 5 4 4 3 1 2 3 2 2 4 4 2 0 4 5 10 13 10 8 3 8 9 11 8 8 10 9 9 8 4 9 13 14
10 10 11 11 11 9 9 10 10 8 8 8 6 2 5 4 3 3 2 6 6 8 9 12 8 10 10 13 14 15 14 13 14 10 8 7 6 5 8 7 6 3 3 1 2 1 3 0 3 3 4 3 2 4 2 4 3 3 6 2 5 4 5 2 1 5 5 8 13 15 12 13 13 9 6 10 11 9 6 8 7 5 6 7 10 12 12
10 11 11 11 10 9 9 10 9 8 9 9 7 4 5 3 3 3 5 5 4 7 7 5 1 4 3 5 2 4 8 8 11 13 9 9 7 3 2 6 3 2 3 4 1 3 3 1 5 0 3 4 1 3 3 4 3 2 3 7 1 3 2 2 4 3 4 8 3 3 8 8 8 9 8 7 6 6 5 7 6 6 7 7 9 10 9
11 11 11 11 10 9 10 10 9 9 8 10 8 5 6 5 2 1 4 5 2 2 6 6 6 12 8 9 8 7 8 9 7 10 8 10 12 9 9 4 7 6 5 3 3 4 2 3 4 2 5 5 1 5 2 1 7 2 5 6 4 5 0 3 5 3 2 8 12 14 12 11 7 6 6 7 6 8 6 5 6 7 6 7 9 8 10
12 12 11 11 10 9 9 9 9 9 9 10 10 5 5 6 3 2 2 5 5 4 5 6 6 2 3 6 7 5 4 4 7 9 11 14 15 16 16 6 8 4 4 2 3 4 3 3 3 2 2 7 1 2 3 7 7 4 3 12 6 6 1 5 1 3 8 8 11 8 10 4 1 3 3 4 6 8 11 10 7 6 8 11 12 9 10
12 12 11 11 10 9 9 9 9 9 8 10 7 5 6 7 5 6 5 4 3 4 3 6 8 7 3 13 14 6 6 6 6 8 9 11 13 12 10 10 10 7 5 5 1 3 2 3 2 6 5 6 1 4 4 7 3 4 3 7 2 1 4 2 4 6 9 6 11 6 10 10 11 7 8 8 5 6 9 10 8 8 11 11 13 16 14
12 12 12 11 10 9 9 9 9 8 9 10 6 6 7 8 6 7 7 8 6 4 4 6 8 15 12 12 5 2 5 6 8 8 9 10 12 11 11 12 9 8 4 2 5 2 3 3 7 4 1 4 2 6 1 3 2 3 3 5 2 8 13 11 9 6 10 13 13 6 5 7 9 8 9 9 7 6 8 9 8 7 8 11 12 12 13
12 12 12 11 10 9 9 9 9 7 9 7 4 7 7 6 5 6 7 6 5 5 5 7 8 7 5 10 11 10 4 5 5 8 9 10 11 11 12 12 11 9 3 3 2 2 3 6 2 3 3 5 1 5 3 3 2 4 4 7 12 12 12 12 12 12 14 13 11 5 3 8 10 11 10 9 6 5 7 8 7 6 7 10 11 8 7
13 12 12 12 11 10 9 8 8 7 7 2 2 2 3 2 2 1 6 5 5 2 4 5 7 5 4 4 8 7 11 6 5 8 10 8 8 10 11 11 10 8 5 4 5 4 5 3 3 3 2 1 2 1 1 2 4 5 5 16 17 17 16 9 5 4 10 13 7 6 7 9 7 6 9 6 5 5 4 7 9 8 7 8 9 11 9
13 12 12 12 10 10 9 8 8 6 6 1 0 1 1 1 1 1 7 3 4 3 2 2 7 7 8 3 4 11 12 13 9 7 7 7 9 9 8 7 5 8 6 4 2 6 1 3 1 3 0 2 3 1 2 3 6 6 11 17 15 16 15 15 6 2 5 9 10 8 6 6 6 7 4 5 8 7 6 4 4 6 6 8 9 10 9
13 13 12 11 10 9 9 9 9 6 3 4 5 4 4 2 2 5 2 3 1 1 1 5 5 2 3 6 4 3 7 9 3 3 4 1 3 2 2 9 6 8 7 5 3 1 4 5 2 4 1 3 3 2 1 2 5 8 15 16 15 16 17 14 11 11 10 10 12 11 9 12 7 5 6 8 7 6 4 8 7 4 3 4 6 4 6
13 12 12 10 9 9 9 9 9 6 4 7 13 17 19 21 19 16 5 1 0 1 2 2 4 3 4 6 8 5 2 3 3 3 6 0 2 2 3 0 2 2 3 4 2 4 3 3 1 1 3 1 2 1 2 2 5 11 13 15 15 16 17 14 9 9 10 10 9 7 8 8 9 11 8 8 5 5 8 10 9 5 3 2 4 5 3
13 12 10 9 9 9 9 10 9 10 8 5 7 7 5 12 14 19 6 3 2 2 0 0 3 3 6 4 5 7 2 3 4 2 4 4 1 2 3 1 0 2 3 5 4 1 2 1 2 2 1 2 2 2 2 6 14 13 15 15 16 18 16 14 10 14 14 10 8 6 9 9 8 6 4 9 9 7 8 8 7 8 4 2 3 3 3
12 10 9 8 8 9 11 10 5 3 4 4 6 7 5 7 6 6 9 5 3 0 0 1 1 5 5 4 2 8 2 3 4 1 0 6 1 2 3 1 2 1 2 1 1 1 1 4 5 3 2 3 4 4 2 11 14 14 14 17 19 19 19 20 17 17 15 12 9 10 10 6 7 9 8 8 10 8 8 8 5 1 3 5 5 6 5
8 7 6 6 8 8 4 4 4 4 3 4 5 5 5 2 7 6 8 2 1 1 1 1 2 3 2 4 4 6 3 4 2 3 3 2 6 1 1 1 2 3 0 1 4 1 1 2 3 2 2 4 4 5 7 9 12 13 11 11 13 15 12 12 14 18 15 12 10 9 9 6 6 7 7 7 8 9 7 7 7 4 1 2 4 4 4
5 4 3 4 3 1 3 2 2 4 5 4 4 1 7 8 5 4 2 1 2 0 2 1 4 5 5 4 2 6 4 5 4 4 4 3 4 2 3 2 2 3 2 2 1 1 3 1 6 4 3 3 4 6 7 8 9 10 11 10 11 12 14 14 15 15 15 15 13 11 11 10 9 8 9 9 9 9 9 9 7 6 5 4 4 5 4
4 2 1 1 1 1 2 2 3 4 7 4 3 1 2 3 1 1 1 1 2 1 1 1 6 2 1 1 6 5 1 5 2 1 4 1 2 3 0 0 2 1 3 2 3 2 1 4 3 3 3 4 3 5 7 9 8 9 10 10 10 11 12 13 14 16 18 19 19 19 17 15 13 12 9 11 8 7 7 5 6 5 2 1 2 2 3
4 2 2 2 2 2 2 1 2 2 3 1 2 0 1 0 1 0 1 1 1 3 1 4 5 4 4 4 8 3 3 3 5 2 1 3 1 5 1 2 4 2 2 2 4 3 2 2 2 2 3 5 5 9 9 8 8 8 10 9 8 9 11 12 11 12 11 9 12 14 12 10 11 14 11 9 10 7 4 6 7 7 7 2 3 3 4
3 2 2 2 4 4 2 2 5 2 1 0 1 1 1 0 1 2 0 1 2 2 2 5 3 5 8 9 3 6 1 4 2 5 2 6 1 1 2 0 2 1 2 0 5 3 1 1 1 1 1 5 6 7 8 8 7 7 9 11 12 13 14 14 14 11 9 9 9 11 13 13 10 10 9 9 8 9 8 5 4 4 8 3 2 4 4
2 1 2 2 1 1 2 3 3 1 1 0 0 0 0 1 2 2 1 1 2 3 3 4 1 2 3 3 3 7 6 1 3 0 1 3 3 1 2 1 1 0 1 1 3 2 2 2 1 1 5 7 8 10 11 10 10 10 10 11 12 13 16 17 16 15 16 16 15 14 14 16 16 14 12 11 9 7 5 3 4 6 9 7 5 3 2
2 2 1 1 1 1 1 1 1 1 0 1 1 2 2 2 0 1 2 2 3 1 2 3 1 3 5 10 7 4 5 3 1 1 1 2 1 0 3 1 1 0 1 3 0 2 2 2 1 2 6 8 8 9 10 12 13 12 13 13 12 13 16 16 17 16 15 14 13 13 13 14 15 14 12 12 11 7 1 4 4 4 6 5 2 2 2
3 3 2 1 1 0 0 0 1 1 1 0 1 2 1 0 2 2 1 1 1 1 1 1 3 1 0 3 2 4 4 1 1 2 0 3 2 1 0 1 1 1 2 2 1 2 3 2 3 4 7 10 11 12 11 12 13 12 12 12 11 10 13 15 15 15 14 14 14 13 13 14 14 13 13 11 10 8 3 3 5 6 8 7 2 3 4
3 1 1 0 1 2 1 2 1 2 1 1 2 2 1 1 3 0 0 2 0 0 0 1 2 3 3 1 0 2 3 2 2 1 1 1 0 1 1 1 2 4 0 1 3 4 2 3 4 5 6 8 8 12 12 13 13 14 13 14 13 12 14 15 15 16 18 16 15 15 13 13 15 15 15 13 12 10 9 3 2 3 5 7 2 3 2
2 1 1 1 1 1 2 1 1 2 3 3 3 3 2 2 1 1 2 2 1 1 2 1 1 1 2 4 1 1 1 2 2 1 2 0 1 0 0 2 2 1 1 2 1 1 1 3 3 5 8 10 10 10 12 12 12 13 15 15 15 15 15 17 16 14 13 15 15 15 15 15 14 14 13 14 13 9 8 8 7 2 4 2 3 3 3
2 3 3 3 1 2 2 2 1 1 2 2 2 5 3 5 2 3 4 0 1 2 2 0 2 0 3 2 1 2 1 1 1 2 1 0 1 2 3 0 1 1 1 2 2 2 2 2 4 6 7 8 9 10 11 11 12 12 13 14 15 16 14 14 14 14 13 14 14 13 13 13 13 13 14 14 12 12 14 13 10 5 5 2 3 4 4
1 0 1 0 1 2 1 2 2 2 1 1 4 5 5 5 4 2 1 1 1 2 2 1 0 1 1 4 1 3 0 0 1 3 1 0 1 2 1 0 1 1 1 2 2 3 3 3 4 7 8 9 10 10 11 11 12 13 13 12 13 15 14 14 15 15 15 14 13 14 13 13 13 12 12 13 13 13 16 16 13 9 7 6 5 4 4
2 1 2 2 3 2 3 3 1 2 1 1 3 3 4 2 3 2 3 1 1 1 2 2 2 3 3 2 1 3 2 0 1 4 1 1 1 0 1 2 2 2 2 2 2 3 4 3 5 6 7 7 8 10 11 12 12 14 14 13 14 14 14 14 15 15 14 14 13 13 13 13 12 11 11 11 11 12 13 13 12 11 10 9 7 7 8
1 2 2 2 1 1 1 1 1 1 4 4 3 2 4 6 3 2 4 1 2 3 1 0 1 2 2 1 0 1 2 1 1 2 2 2 0 1 1 1 1 2 2 2 3 4 4 5 6 6 6 6 6 8 10 10 11 12 12 13 13 12 12 13 13 13 13 12 12 12 13 12 11 10 10 11 11 12 11 11 12 12 11 11 10 10 10
1 1 0 1 1 2 1 0 0 1 4 5 4 1 1 2 1 1 1 1 1 1 2 1 1 1 1 1 1 1 0 1 0 2 0 0 1 1 0 1 1 1 2 3 4 5 4 4 5 6 6 6 7 9 10 11 11 11 11 11 11 11 11 13 14 13 12 12 13 13 12 12 12 11 11 10 8 8 10 12 13 12 12 11 11 10 11
0 1 2 2 3 1 1 1 2 0 4 3 1 2 1 1 1 0 0 0 1 2 3 1 0 0 1 2 1 1 1 0 2 1 1 1 1 2 2 2 2 3 3 5 5 4 3 4 5 5 7 7 7 8 9 10 10 10 10 11 11 11 10 12 12 13 13 12 12 12 14 14 13 12 10 9 8 10 12 13 14 12 11 10 11 11 11
1 1 2 2 2 2 2 1 1 4 5 4 2 3 2 0 2 3 1 3 3 4 0 1 1 0 1 0 1 1 1 1 0 1 2 1 2 1 2 3 3 5 5 5 6 4 4 4 4 5 5 7 7 8 9 9 9 9 9 10 11 11 11 11 12 12 12 11 12 12 12 12 12 11 10 10 12 13 13 12 13 13 11 10 10 10 10
Wind_Direction
347 346 348 353 353 351 350 348 347 349 350 2 351 353 28 49 210 255 313 326 3 3 45 99 54 343 258 278 272 256 273 243 278 320 298 303 220 304 226 224 231 272 209 339 264 325 280 260 232 263 282 254 223 200 148 152 88 89 274 125 191 136 113 188 272 286 279 278 274 267 240 228 244 257 235 163 225 195 190 177 188 120 305 320 316 265 259
346 346 347 353 353 352 351 348 347 347 358 341 317 56 87 223 255 322 314 2 348 42 25 328 332 306 301 285 272 286 255 296 308 253 279 271 337 206 258 337 196 266 197 259 279 350 319 242 256 299 299 278 240 159 164 155 175 178 224 156 205 127 242 180 313 356 336 312 312 310 2 71 126 300 304 235 244 223 188 103 97 23 234 222 182 257 272
346 345 346 351 352 352 350 348 346 346 349 356 30 32 264 260 265 242 298 359 54 14 173 269 300 333 324 328 312 326 300 227 235 264 283 293 238 13 284 176 127 275 33 265 241 230 212 292 283 262 248 254 183 189 177 181 184 215 235 195 164 156 184 145 157 199 264 213 191 215 282 263 251 116 264 308 307 236 91 262 98 217 259 192 180 258 259
346 347 347 349 352 352 351 348 347 344 347 356 115 281 7 25 26 310 342 6 13 172 171 210 360 327 342 333 301 269 287 299 285 271 277 239 319 300 214 31 119 311 345 313 256 235 225 208 282 2 300 296 271 178 203 202 213 224 228 239 144 211 164 162 177 166 186 211 224 245 188 328 16 310 314 298 294 275 199 129 131 218 258 260 241 238 271
346 346 347 349 352 353 352 352 347 345 343 360 137 25 112 201 74 334 332 337 43 42 9 49 33 317 329 285 311 309 330 319 293 41 313 6 342 300 131 176 20 316 329 319 308 215 250 232 250 268 253 250 255 181 175 210 243 242 240 225 101 358 275 221 200 209 210 177 178 242 241 257 264 246 255 230 228 239 188 166 216 184 270 263 255 245 254
344 345 345 349 353 356 354 354 350 346 342 352 124 44 357 62 275 97 197 169 284 7 326 354 319 287 206 256 252 311 338 348 342 306 207 324 309 333 295 33 333 316 318 294 293 278 287 199 244 285 230 291 301 350 148 191 219 223 248 187 184 178 203 265 176 268 237 188 191 204 225 232 241 255 256 268 260 229 204 214 209 140 208 236 259 245 245
342 343 345 350 354 359 357 358 354 348 343 346 105 71 330 119 242 176 296 32 254 186 272 306 282 304 253 237 343 344 340 325 320 313 312 323 312 60 331 323 327 320 320 218 269 264 346 318 282 222 300 253 312 317 314 243 205 199 217 224 195 125 265 338 25 322 310 280 240 215 247 271 285 269 258 246 249 245 221 221 207 204 225 237 257 273 266
341 341 345 350 358 0 360 360 360 354 343 351 62 64 68 20 6 324 334 226 284 281 300 281 313 303 323 353 294 324 308 317 320 314 281 304 303 0 345 314 319 312 308 238 242 269 259 222 283 284 199 307 196 250 197 232 251 178 207 203 214 153 281 95 85 333 296 304 299 289 265 255 273 272 260 247 231 230 231 222 236 230 251 250 257 266 273
340 341 346 356 360 2 1 2 4 4 349 41 35 64 37 284 294 292 312 315 262 252 308 333 313 335 325 22 323 330 332 323 324 301 270 234 262 346 312 307 309 301 286 265 251 252 266 276 244 253 254 253 233 142 294 185 316 236 249 216 255 122 196 110 126 199 272 240 257 268 267 253 247 265 264 242 220 213 218 206 216 175 219 232 238 251 261
338 343 347 358 1 2 4 5 5 14 2 41 15 52 331 307 277 300 147 307 296 321 280 290 26 329 240 3 336 331 308 309 332 326 292 339 294 289 304 305 300 299 319 304 303 314 303 288 276 249 240 237 248 226 242 312 240 310 249 216 162 161 141 173 160 212 248 238 201 210 230 265 286 256 228 193 211 218 247 262 238 227 217 245 224 234 231
336 341 347 356 1 358 2 7 4 20 30 37 19 31 0 17 339 320 177 277 308 344 341 286 102 248 332 325 310 265 274 302 323 336 300 327 302 306 312 309 314 296 284 291 302 293 285 279 277 257 212 223 237 244 257 262 226 208 239 287 230 153 161 188 171 212 268 294 299 287 124 99 224 230 181 172 258 263 260 267 246 239 178 211 203 245 279
328 337 336 355 356 354 359 3 6 8 51 73 35 315 330 327 316 263 351 349 288 133 32 287 290 291 307 299 305 299 305 307 301 280 275 285 285 298 305 295 287 308 291 306 306 307 301 282 78 107 150 210 235 259 260 263 269 226 225 236 246 188 181 186 163 205 278 301 340 12 48 237 242 279 256 247 256 249 233 248 257 241 228 255 276 270 257
324 330 329 343 348 351 354 359 1 356 4 45 80 358 294 297 281 319 289 291 274 323 325 295 286 275 275 281 281 266 276 286 285 282 271 274 289 295 277 295 301 279 307 306 309 317 356 312 315 306 326 332 263 249 264 261 266 265 224 222 220 216 168 149 212 215 306 0 51 11 250 244 276 295 328 324 320 205 48 300 269 247 207 214 243 253 263
320 323 321 328 333 340 347 354 355 351 343 5 37 286 244 303 4 314 331 321 288 239 281 297 284 279 299 293 285 294 300 296 290 265 279 267 285 289 287 274 280 296 299 302 303 338 9 26 17 5 342 350 2 3 271 263 250 258 270 245 217 217 102 151 228 166 237 217 174 240 304 326 329 13 38 323 305 313 234 266 274 213 201 204 246 277 278
313 320 319 315 323 324 335 342 347 345 340 331 127 292 273 243 238 249 309 257 288 294 248 254 270 270 314 308 316 309 302 303 332 323 287 270 268 246 302 301 308 311 308 321 334 22 105 112 28 1 346 19 354 305 317 348 311 245 257 289 243 184 200 214 167 255 154 217 310 324 355 289 277 9 330 344 319 308 270 111 281 236 211 264 278 284 297
309 316 317 317 320 320 329 339 340 340 328 346 334 270 267 236 206 207 233 261 289 297 254 221 231 330 310 301 303 300 308 324 326 310 312 298 255 311 307 304 310 303 315 19 8 32 348 51 4 18 29 342 293 294 328 328 328 299 234 250 360 93 131 128 172 232 74 254 218 240 250 243 206 289 302 312 327 21 305 307 278 215 176 184 307 298 290
306 309 312 314 324 326 335 340 340 326 329 328 320 314 297 237 353 283 317 288 223 245 278 278 270 283 293 293 301 308 308 313 335 349 329 328 330 318 303 326 311 330 0 27 7 35 16 28 342 321 265 291 345 339 295 329 328 323 335 352 11 52 48 98 115 242 213 135 263 274 219 247 264 275 302 304 5 61 352 286 276 244 354 201 164 265 292
299 302 305 312 321 325 327 332 331 327 314 325 273 303 278 276 242 230 291 262 290 281 251 238 197 213 230 224 290 273 257 286 304 298 257 290 298 316 331 334 334 328 34 30 4 39 20 32 10 5 323 330 318 300 348 326 315 312 326 321 311 355 338 9 223 222 227 193 270 305 299 272 228 241 261 318 310 117 181 223 248 307 328 303 248 259 278
294 297 300 307 311 313 318 325 332 320 316 310 331 273 267 217 168 237 232 251 222 259 211 278 220 263 253 266 253 256 238 264 273 296 307 320 267 301 312 274 276 335 359 5 9 37 42 350 311 309 307 311 6 355 306 315 287 285 303 349 351 329 288 299 32 356 286 229 209 238 248 234 206 224 204 220 228 224 221 234 239 300 305 306 299 287 271
289 291 295 300 302 302 308 316 323 316 307 312 304 255 269 256 243 196 234 281 259 270 275 265 250 253 247 225 255 272 303 301 216 235 174 251 332 354 345 20 326 14 326 15 37 319 60 343 314 333 358 284 272 256 287 263 240 230 281 276 212 277 326 284 286 270 292 9 266 311 318 257 193 264 322 149 156 240 217 281 293 280 288 290 299 295 286
281 284 289 294 295 296 308 317 322 313 300 305 311 279 299 240 244 238 195 237 293 296 297 258 240 243 245 241 232 235 227 253 235 213 225 242 323 20 323 243 336 7 303 352 8 332 14 335 332 338 287 293 292 348 310 319 306 273 195 228 261 242 281 319 285 196 283 288 267 233 236 270 193 68 286 238 220 257 295 299 291 298 298 309 311 303 295
276 280 284 286 288 297 310 318 318 306 298 299 303 275 272 236 221 194 228 190 248 237 258 268 286 273 260 254 253 242 243 246 252 237 256 273 202 205 250 297 293 279 272 349 28 352 6 324 310 348 321 302 8 262 301 321 303 277 272 140 344 192 231 191 254 234 208 251 256 265 272 283 278 226 248 257 272 277 282 282 285 298 298 304 312 298 304
268 275 279 281 288 296 304 313 313 303 296 296 290 231 274 286 250 257 260 265 241 250 265 275 267 268 274 259 239 235 233 231 244 248 220 237 270 207 235 251 268 216 259 247 220 193 239 100 274 223 291 237 230 301 306 210 270 330 329 234 230 245 236 184 138 260 239 245 246 270 293 285 282 271 246 270 280 288 298 295 295 284 290 289 282 286 293
264 271 275 281 286 289 298 307 309 299 295 296 289 270 277 256 285 292 272 251 269 296 276 228 330 290 211 288 295 199 216 231 224 228 214 184 238 286 258 229 202 274 252 251 187 340 274 203 250 213 259 266 278 288 287 318 261 254 325 313 312 254 186 143 214 275 12 301 300 235 256 276 264 274 279 271 266 284 297 300 282 270 278 291 276 261 281
262 266 273 278 280 282 295 303 301 295 291 286 290 281 281 280 233 199 333 313 320 356 302 304 253 254 257 252 264 262 228 224 211 219 205 195 208 219 242 188 184 194 243 275 335 353 31 308 316 308 285 266 213 272 213 224 291 73 349 282 322 320 212 285 241 259 198 258 293 299 299 284 279 266 279 284 295 297 287 259 254 257 256 263 281 306 327
258 263 269 273 275 280 287 297 297 291 279 283 287 273 266 265 234 201 241 266 262 271 279 299 278 292 272 297 273 237 236 217 222 217 209 205 209 217 241 267 271 250 293 310 323 284 254 267 249 242 216 287 159 218 237 193 265 302 241 265 231 263 359 281 229 305 268 276 276 280 308 292 231 236 252 264 292 305 310 312 321 321 334 319 315 331 342
252 260 263 268 272 275 285 292 293 289 288 292 288 266 262 262 214 200 217 248 294 292 223 254 282 287 350 300 286 286 256 239 232 229 233 222 219 225 233 244 256 267 263 291 292 224 230 233 183 250 181 240 200 231 267 297 243 278 293 278 313 328 275 257 8 316 304 285 305 353 346 327 315 314 310 318 302 304 310 315 325 343 339 335 339 334 333
248 254 260 262 265 272 284 289 289 295 297 298 295 282 262 263 237 206 203 208 200 225 269 287 304 297 301 268 258 231 260 244 235 233 225 229 224 222 221 230 234 251 228 191 289 235 208 226 247 230 240 291 334 284 214 255 299 298 240 279 321 327 323 322 304 277 287 295 297 310 275 268 268 284 310 320 324 327 318 315 322 330 331 334 339 336 325
244 250 258 261 260 268 278 284 287 294 299 311 305 295 284 245 264 192 195 194 214 269 287 277 269 281 297 303 313 301 254 209 235 226 231 232 221 219 221 221 219 218 185 183 188 170 193 236 185 206 229 209 154 276 4 312 263 275 280 350 341 317 313 299 280 277 278 281 282 302 312 303 302 317 319 319 317 315 314 316 316 339 344 331 330 311 332
244 250 255 258 257 264 273 279 287 290 299 349 344 308 333 352 60 116 174 180 187 257 284 319 317 275 303 308 291 299 302 285 248 241 242 235 225 218 217 212 223 201 183 185 171 230 225 228 256 263 272 179 227 246 332 244 311 278 7 345 334 329 326 320 294 256 290 298 311 316 308 299 301 301 298 293 310 306 316 312 310 322 324 327 329 329 345
243 248 251 252 255 264 272 276 282 283 288 268 63 349 337 334 173 87 115 129 186 224 248 218 256 304 307 242 277 294 302 310 311 303 264 232 227 219 218 191 216 158 194 203 202 230 118 261 195 271 249 191 154 185 227 327 318 308 343 336 332 330 325 321 300 16 335 314 312 304 307 303 317 315 300 303 327 327 321 307 303 319 331 325 332 320 330
241 245 248 248 254 263 271 275 277 275 229 221 220 189 176 161 157 200 194 61 23 50 295 307 302 285 289 298 270 260 286 285 283 301 284 185 297 203 175 177 196 183 166 176 207 140 236 218 173 247 237 217 141 261 56 53 337 321 326 332 331 330 325 325 337 1 12 6 347 338 340 327 334 339 291 303 310 313 312 321 319 302 319 289 279 309 328
240 244 245 249 253 264 273 276 278 269 240 253 256 264 269 270 268 268 274 118 28 217 208 254 270 305 284 280 314 296 255 329 341 8 322 255 257 327 324 59 131 108 197 110 212 203 222 159 182 341 255 153 152 196 86 87 329 315 329 334 331 330 314 320 328 358 5 357 11 328 307 305 307 312 299 290 306 318 340 354 332 355 10 15 8 324 341
239 240 246 248 259 273 280 283 284 288 292 278 281 253 246 241 243 245 222 109 211 242 58 246 308 290 277 333 349 286 12 356 285 5 333 291 214 13 256 16 258 132 216 181 257 335 314 119 195 214 1 10 17 67 9 346 340 342 343 335 337 336 333 330 349 354 346 343 336 319 282 282 282 275 313 336 332 346 12 5 8 25 360 21 305 291 296
232 238 240 255 273 282 285 286 289 242 251 262 260 270 268 240 187 185 171 157 126 293 217 252 219 294 317 328 329 277 312 357 311 296 193 275 37 274 309 30 320 43 299 98 355 190 251 247 178 71 349 329 40 31 9 343 339 340 346 347 342 337 345 355 344 336 326 329 329 321 301 313 3 3 344 334 329 336 12 0 355 39 337 332 326 307 304
225 229 243 275 291 292 300 266 214 220 218 233 227 263 255 293 172 159 176 204 109 149 169 217 165 240 186 281 302 285 344 320 270 310 237 280 330 353 71 97 3 265 197 135 223 342 238 266 73 18 311 63 56 30 343 345 338 337 350 337 325 332 328 325 322 324 322 323 318 295 317 350 24 349 341 336 334 329 356 5 347 346 335 298 310 307 342
187 206 272 300 293 184 237 221 182 195 225 187 231 206 107 101 82 94 138 263 275 122 185 192 243 228 187 247 271 273 7 312 325 330 331 8 312 292 30 30 259 280 21 357 355 330 275 47 84 81 39 61 51 8 1 347 347 337 330 327 326 326 331 338 338 338 339 341 345 349 350 342 348 356 353 347 346 346 354 355 339 341 353 337 330 359 347
158 181 127 101 144 273 283 246 201 237 221 234 185 93 340 18 87 338 79 170 268 192 245 187 250 233 153 176 256 255 7 267 51 352 303 237 0 308 352 229 241 10 316 265 255 193 58 39 79 102 80 82 94 34 0 350 346 340 327 334 336 331 332 335 344 355 359 353 352 344 339 336 335 336 347 334 336 340 331 326 335 327 312 336 354 346 16
136 150 143 189 168 216 204 176 349 337 119 71 87 51 287 8 81 294 238 198 303 217 194 203 242 185 185 224 263 268 193 265 322 19 316 273 84 308 14 15 298 50 299 24 295 34 34 15 49 58 95 13 7 357 350 345 344 345 331 334 336 336 338 340 349 359 352 337 319 319 319 311 307 309 320 325 322 322 325 340 343 328 314 339 20 29 37
131 162 183 180 208 228 260 316 347 337 94 88 320 112 261 197 111 250 200 117 246 226 170 236 198 197 195 207 219 306 157 128 221 289 229 303 170 206 264 22 263 74 277 62 262 0 80 82 337 91 76 24 357 353 351 343 335 334 337 339 347 349 351 348 343 341 336 326 325 329 332 329 320 305 308 315 312 311 325 341 350 329 310 312 3 45 22
182 194 209 219 237 332 297 312 337 54 73 66 2 331 81 296 221 190 136 253 225 229 192 187 177 256 230 212 192 247 277 205 249 162 132 251 255 81 36 271 236 37 287 280 280 46 68 81 38 35 35 7 1 352 342 338 341 343 348 346 352 354 352 348 344 346 347 346 347 345 340 336 332 329 324 317 306 299 293 304 347 358 316 311 20 4 330
152 131 150 103 223 273 329 15 71 67 353 162 126 254 216 225 272 326 167 164 249 207 257 172 225 215 232 181 199 197 273 205 177 118 129 293 293 260 263 293 352 105 261 238 138 55 67 79 21 44 12 356 352 346 345 339 340 343 346 348 351 356 353 350 344 342 347 343 340 339 336 334 332 330 328 323 320 302 285 48 20 328 292 304 337 352 14
114 106 111 53 34 345 99 102 235 123 152 230 77 298 271 186 221 182 263 261 259 131 254 155 243 211 50 116 270 205 216 243 291 305 21 256 292 60 65 333 35 306 241 301 62 49 50 56 30 25 7 352 347 341 340 337 333 339 342 343 344 358 355 347 347 340 337 339 339 342 336 333 331 327 324 321 328 314 358 75 61 337 310 302 349 23 19
90 89 93 13 75 281 115 214 187 73 265 169 153 208 232 298 299 115 336 275 263 293 254 142 287 66 302 289 178 298 357 349 56 54 308 302 85 289 35 274 228 243 73 43 48 80 117 75 39 10 347 337 342 343 340 341 342 339 341 344 345 353 355 348 349 350 346 343 344 345 341 342 336 334 337 340 346 333 318 321 170 197 288 287 37 43 355
105 107 121 107 168 245 97 295 189 157 204 212 164 207 176 171 251 181 224 256 66 256 317 54 63 81 264 277 27 292 134 244 299 98 260 299 334 301 132 258 255 29 31 272 19 343 35 63 7 349 350 346 342 341 342 340 342 343 339 340 347 351 357 353 350 347 345 342 339 342 341 341 341 339 337 340 342 342 334 317 297 316 260 248 84 49 13
149 160 147 132 198 251 182 231 154 260 262 156 196 199 187 240 204 250 262 160 51 355 47 220 230 239 314 262 139 248 318 69 18 253 215 73 111 274 247 245 81 46 3 45 49 67 92 354 342 348 342 335 339 339 340 340 341 343 342 343 345 349 353 351 348 345 342 337 337 343 338 338 341 342 342 338 340 355 2 351 346 322 261 102 54 44 16
88 124 103 97 155 244 145 185 228 198 178 241 225 191 199 231 206 198 243 104 33 266 288 281 75 205 261 293 349 337 6 45 231 270 77 299 212 262 7 16 290 33 75 38 25 22 355 360 352 342 342 343 345 339 334 340 344 344 342 340 341 348 355 354 349 346 340 336 341 343 341 340 338 339 344 347 351 2 4 355 348 351 353 21 23 20 36
157 190 117 130 206 187 177 242 215 293 281 208 258 240 236 176 60 14 315 297 248 57 32 23 356 354 346 298 107 224 250 310 306 293 169 229 320 25 342 40 83 61 21 35 8 325 311 359 349 334 337 344 346 336 338 338 343 345 344 343 343 349 356 355 351 345 337 342 347 344 338 338 339 342 352 350 344 0 8 348 354 1 13 16 22 35 39
159 140 170 215 217 185 231 243 65 356 297 335 314 23 58 75 65 354 303 1 33 338 297 168 213 112 263 256 153 355 318 313 84 271 342 359 41 304 319 328 40 89 90 53 337 339 354 356 336 328 336 350 351 341 336 338 341 343 345 344 345 348 353 355 350 342 334 342 347 344 341 337 334 339 350 2 6 357 353 356 5 14 20 21 18 19 30
103 316 34 144 350 306 226 93 58 296 323 339 19 12 356 81 45 298 271 13 328 15 5 16 38 98 244 82 318 358 279 332 97 296 37 31 4 311 317 117 98 81 350 19 344 337 357 349 334 331 335 341 349 346 343 342 342 343 346 346 346 349 355 356 352 348 347 350 349 347 342 346 346 346 347 353 357 354 356 6 10 13 16 20 21 24 27
253 145 238 196 167 210 88 82 131 245 309 296 301 280 139 162 175 260 279 116 46 46 41 86 254 84 352 15 29 19 276 3 15 339 87 29 328 317 6 43 44 43 25 9 335 341 347 345 347 338 341 346 347 344 341 340 340 342 348 351 351 352 356 359 357 355 350 350 351 353 358 357 350 342 336 330 343 26 22 10 8 10 11 16 22 24 26
133 160 238 264 220 190 156 144 171 204 225 225 215 246 119 84 246 252 264 88 56 79 272 271 72 31 61 114 228 209 304 34 233 54 39 17 10 14 22 20 26 35 11 345 337 345 348 353 346 337 330 335 339 339 338 337 337 344 349 350 352 355 356 358 357 354 350 350 355 358 357 354 347 350 353 4 20 28 26 12 0 2 8 15 20 21 24